Location: Newark
(34.0131°N, 4.3314°W)
Time: 11:02:59
(UTC+00:00)

Explorer 11/Cluster Stage 4 - Pass Details

Date: 31 October 2019
Orbit: 467 x 1259 km, 28.8° (Epoch: 19 November)

Event Time Altitude Azimuth Distance (km) Brightness Sun altitude
Rises 06:37:58 0° 262° (W) 3,355 9.2 -0.4°
Reaches altitude 10° 06:40:50 10° 256° (WSW) 2,278 8.5 0.2°
Maximum altitude 06:45:50 44° 185° (S) 884 7.1 1.2°
Drops below altitude 10° 06:49:55 10° 113° (ESE) 1,854 11.0 2.0°
Sets 06:52:03 0° 106° (ESE) 2,664 12.8 2.4°
